This is the latest recevied weather packets stored in our database for station/object K4CRS-13. If no packets are shown the sender has not sent any weather packets the latest 10 day(s).
| Time | Temp. | Humidity | Pressure | Rain* | Wind** | Luminosity | Snow |
|---|---|---|---|---|---|---|---|
| 1777659966 | 16.11° C | 60% | 1051.1 hPa | 0 mm | - | 261 W/m² | - |
| 1777659663 | 16.11° C | 58% | 1051 hPa | 0 mm | - | 246 W/m² | - |
| 1777659360 | 16.11° C | 59% | 1050.8 hPa | 0 mm | - | 257 W/m² | - |
| 1777659057 | 16.67° C | 58% | 1051 hPa | 0 mm | - | 279 W/m² | - |
| 1777658755 | 16.11° C | 60% | 1050.7 hPa | 0 mm | - | 268 W/m² | - |
| 1777658450 | 16.11° C | 61% | 1050.7 hPa | 0 mm | - | 267 W/m² | - |
| 1777658147 | 16.67° C | 60% | 1050.5 hPa | 0 mm | - | 249 W/m² | - |
| 1777657844 | 16.11° C | 60% | 1050.5 hPa | 0 mm | - | 238 W/m² | - |
| 1777657541 | 16.11° C | 60% | 1050.4 hPa | 0 mm | - | 314 W/m² | - |
| 1777657239 | 16.11° C | 62% | 1050.4 hPa | 0 mm | - | 298 W/m² | - |
| 1777656936 | 16.11° C | 59% | 1050.5 hPa | 0 mm | - | 262 W/m² | - |
| 1777656633 | 16.11° C | 60% | 1050.5 hPa | 0 mm | - | 242 W/m² | - |
| 1777656328 | 16.11° C | 60% | 1050.8 hPa | 0 mm | - | 273 W/m² | - |
| 1777656024 | 16.11° C | 60% | 1050.9 hPa | 0 mm | - | 287 W/m² | - |
| 1777655720 | 16.11° C | 61% | 1051 hPa | 0 mm | - | 300 W/m² | - |
| 1777655417 | 16.67° C | 60% | 1051.1 hPa | 0 mm | - | 348 W/m² | - |
| 1777655114 | 16.11° C | 63% | 1051.1 hPa | 0 mm | - | 333 W/m² | - |
| 1777654811 | 16.11° C | 62% | 1051.1 hPa | 0 mm | - | 317 W/m² | - |
| 1777654509 | 16.11° C | 64% | 1051 hPa | 0 mm | - | 335 W/m² | - |
| 1777654206 | 16.11° C | 63% | 1051.2 hPa | 0 mm | - | 352 W/m² | - |
| 1777653904 | 16.11° C | 66% | 1051.5 hPa | 0 mm | - | 335 W/m² | - |
| 1777653600 | 16.11° C | 62% | 1051.4 hPa | 0 mm | - | 345 W/m² | - |
| 1777653296 | 15.56° C | 63% | 1051.5 hPa | 0 mm | - | 364 W/m² | - |
| 1777652993 | 15.56° C | 64% | 1051.8 hPa | 0 mm | - | 405 W/m² | - |
| 1777652689 | 15.56° C | 62% | 1051.7 hPa | 0 mm | - | 367 W/m² | - |
* Rain latest hour (hover to see other rain measurements)
** Current wind speed in m/s (hover to see current wind gust speed)